AirNav   ATP
 
 1169 users online  

I22 Randolph County Airport
Winchester, Indiana, USA

GOING TO WINCHESTER?


FAA INFORMATION EFFECTIVE 16 AUGUST 2018

Location

FAA Identifier: I22
Lat/Long: 40-10-03.7000N / 084-55-45.8000W
40-10.061667N / 084-55.763333W
40.1676944 / -84.9293889
(estimated)
Elevation: 1122.8 ft. / 342.2 m (surveyed)
Variation: 05W (2010)
From city: 3 miles E of WINCHESTER, IN
Time zone: UTC -4 (UTC -5 during Standard Time)
Zip code: 47394

Airport Operations

Airport use: Open to the public
Activation date: 06/1948
Control tower: no
ARTCC: INDIANAPOLIS CENTER
FSS: TERRE HAUTE FLIGHT SERVICE STATION
NOTAMs facility: HUF (NOTAM-D service available)
Attendance: MON-SAT 0800-1700, ALL SUN 1300-1700
ARPT CLSD THANKSGIVING & CHRISTMAS DAY.
Pattern altitude: 1922.8 ft. MSL
Wind indicator: lighted
Segmented circle: no
Lights: ACTVT MIRL RY 08/26; REIL RY 08/26; PAPI RY 08/26 - CTAF.
Beacon: white-green (lighted land airport)
Operates sunset to sunrise.

Airport Communications

CTAF/UNICOM: 123.0
COLUMBUS APPROACH: 118.425
COLUMBUS DEPARTURE: 118.425
CLASS C IC: 118.425
WX AWOS-3 at PLD (17 nm N): 124.675 (260-726-7882)
WX AWOS-3 at VES (18 nm E): 125.9 (937-526-3154)

Nearby radio navigation aids

VOR radial/distance  VOR name  Freq  Var
MIEr104/21.7MUNCIE VOR/DME114.4003W
RIDr353/25.1RICHMOND VORTAC110.6003W
DQNr291/26.1DAYTON VOR/DME114.5001W
MZZr123/39.5MARION VOR/DME108.6003W

 
NDB name  Hdg/Dist  Freq  Var  ID
NEW CASTLE052/24.938506WUWL ..- .-- .-..

Airport Services

Fuel available: 100LL JET-A
Parking: hangars and tiedowns
Airframe service: MINOR
Powerplant service: MINOR
Bottled oxygen: NONE
Bulk oxygen: NONE

Runway Information

Runway 8/26

Dimensions: 4300 x 75 ft. / 1311 x 23 m
Surface: asphalt/grooved, in excellent condition
Weight bearing capacity: 
PCN 21 /F/A/X/T
Single wheel: 64.0
Double wheel: 90.0
Double tandem: 176.0
Runway edge lights: medium intensity
RUNWAY 8  RUNWAY 26
Latitude: 40-09.983400N40-10.139360N
Longitude: 084-56.212758W084-55.312257W
Elevation: 1115.9 ft.1122.8 ft.
Traffic pattern: leftleft
Runway heading: 082 magnetic, 077 true262 magnetic, 257 true
Markings: nonprecision, in good conditionnonprecision, in good condition
Visual slope indicator: 2-light PAPI on left (3.00 degrees glide path)2-light PAPI on left (3.00 degrees glide path)
Runway end identifier lights: yesyes
Touchdown point: yes, no lightsyes, no lights
Obstructions: 17 ft. crops, 780 ft. from runway, 210 ft. right of centerline, 34:1 slope to clear13 ft. road, 650 ft. from runway, 34:1 slope to clear

Airport Ownership and Management from official FAA records

Ownership: Publicly-owned
Owner: RANDOLPH CO BOAC
2937 E STATE RD32
WINCHESTER, IN 47394
Phone 765-584-3611
Manager: ERIC LIVINGSTON
2937 E STATE RD 32
WINCHESTER, IN 47394
Phone 765-584-3611

Airport Operational Statistics

Aircraft based on the field: 18
Single engine airplanes: 15
Ultralights: 3
    
Aircraft operations: avg 131/week *
50% transient general aviation
47% local general aviation
3% air taxi
* for 12-month period ending 31 December 2015

Additional Remarks

COLUMBUS APCH CD (614) 338-8537.

Instrument Procedures

NOTE: All procedures below are presented as PDF files. If you need a reader for these files, you should download the free Adobe Reader.

NOT FOR NAVIGATION. Please procure official charts for flight.
FAA instrument procedures published for use from 16 August 2018 at 0901Z to 13 September 2018 at 0900Z.

 
IAPs - Instrument Approach Procedures
RNAV (GPS) RWY 08 **CHANGED**   download (227KB)
RNAV (GPS) RWY 26   download (228KB)
VOR-A   download (178KB)
NOTE: Special Take-Off Minimums/Departure Procedures apply   download (164KB)

Other nearby airports with instrument procedures:

KPLD - Portland Municipal Airport (17 nm N)
KVES - Darke County Airport (18 nm E)
KMIE - Delaware County Regional Airport (22 nm W)
KRID - Richmond Municipal Airport (25 nm S)
KUWL - New Castle-Henry County Municipal Airport (25 nm SW)
 
Loc | Ops | Rwys | IFR | FBO | Links
Com | Nav | Svcs | Stats | Notes


 
Area around I22 (Randolph County Airport)
 
Road maps at: MapQuest Bing Google
 
Aerial photo
WARNING: Photo may not be current or correct
Aerial photo of I22 (Randolph County Airport)
Photo courtesy of Butler, Fairman & Seufert, Inc.
Photo taken 11-Nov-2013
looking west.

Do you have a better or more recent aerial photo of Randolph County Airport that you would like to share? If so, please send us your photo.

 
Sectional chart

 
Airport distance calculator
Flying to Randolph County Airport? Find the distance to fly.

From to I22

Sunrise and sunset
Times for 18-Aug-2018
 Local
(UTC-4)
 Zulu
(UTC)
Morning civil twilight06:2610:26
Sunrise06:5510:55
Sunset20:3200:32
Evening civil twilight21:0101:01

Current date and time
Zulu (UTC)  18-Aug-2018 14:29:59
Local (UTC-4)  18-Aug-2018 10:29:59
 
METAR
KPLD 
17nm N 
181415Z AUTO 01006KT 5SM BR OVC004 21/21 A3001 RMK AO2
KVES 
18nm E 
181415Z AUTO 04005KT 7SM OVC007 22/22 A3001 RMK AO2
KMIE 
22nm W 
181410Z 03005KT 6SM BR OVC005 23/21 A3001 RMK AO2 T02280206
KRID 
25nm S 
181415Z AUTO 02007KT 7SM BKN007 OVC013 21/21 A3001 RMK AO2
KAID 
32nm W 
181345Z 02005KT 7SM OVC006 21/21 A3001
TAF
KDAY 
36nm SE 
181222Z 1812/1912 00000KT 4SM BR SCT004 BKN090 TEMPO 1812/1814 1/4SM FG BKN002 FM181400 36005KT P6SM BKN008 FM181500 01005KT P6SM BKN025 FM182000 01008KT P6SM SCT035 FM190300 04004KT P6SM FEW250
NOTAMs
Click for the latest NOTAMs
NOTAMs are issued by the DoD/FAA and will open in a separate window not controlled by AirNav.

 

 
 

FBO, Fuel Providers, and Aircraft Ground Support

  
 Business Name 
 
 Contact 
 
 Services / Description 
 
Fuel Prices
 
Comments
  
Randolph County Airport 765-584-3611
no information available

If you are affiliated with Randolph County Airport and would like to show here your services, contact info, web link, logo, and more, click here
100LL Jet A
FS $4.58 $3.87 
SS $4.58 --- 
 Updated 08-Aug-2018
 
   1 read write
FS=Full service
SS=Self service
Update Fuel Prices
 

Would you like to see your business listed on this page?

 If your business provides an interesting product or service to pilots, flight crews, aircraft, or users of the Randolph County Airport, you should consider listing it here.  To start the listing process, click on the button below
 
Add a business
 

Other Pages about Randolph County Airport

Update a link
 
Copyright © AirNav, LLC. All rights reserved. Privacy Policy  Contact